SCP
0 0 0 0 0 0 0 0 0 1 2 3 5 5 5 5 5 6 5 5 6 7 7 6 6 6 7 8 8 11 13 14 13 11 11 12 14 12 9 6 3 2 2 2
0 0 0 0 0 0 0 0 1 1 2 3 4 5 5 5 4 5 5 5 5 6 6 6 6 8 8 7 7 9 10 10 9 9 10 13 15 13 9 5 3 2 2 2
0 0 0 0 0 1 1 1 1 2 2 3 4 4 4 3 3 4 5 5 5 5 6 6 6 7 7 6 6 7 8 8 7 8 11 15 16 13 8 4 2 2 1 1
0 0 0 0 1 1 1 1 2 2 3 3 4 3 3 2 3 4 5 6 6 6 6 6 5 5 5 5 6 7 8 8 8 10 14 18 16 12 6 3 2 1 1 1
0 0 0 1 1 1 1 1 2 3 4 4 4 4 3 3 4 5 6 7 8 7 7 7 6 6 6 6 7 8 9 9 9 13 18 20 15 9 4 2 2 1 1 1
0 0 0 1 1 1 1 1 2 2 3 4 5 6 6 6 7 8 9 11 11 11 10 9 8 8 8 8 8 8 8 9 10 14 17 16 11 6 4 3 2 2 1 1
0 0 1 1 1 1 1 1 1 2 3 5 7 9 9 10 10 11 14 15 15 13 12 11 9 9 8 8 7 6 8 9 10 11 11 10 7 5 4 4 3 2 2 2
1 1 1 1 1 1 1 1 2 2 3 5 8 9 10 9 9 11 17 19 17 15 13 11 9 8 8 7 6 6 7 8 8 8 8 7 6 6 5 5 4 3 2 2
1 1 1 1 1 1 2 2 3 3 4 5 6 7 6 6 5 8 14 19 18 15 13 11 9 7 6 6 7 7 7 6 6 7 8 8 7 7 6 5 4 4 3 3
3 3 2 2 3 3 3 4 4 4 4 5 5 5 4 3 3 4 8 13 14 13 12 11 8 7 7 7 8 8 7 6 5 6 7 7 8 7 6 6 5 4 4 4
3 3 3 4 5 5 5 4 4 4 4 4 4 3 3 2 2 3 5 8 9 9 9 8 8 8 8 8 8 8 8 7 5 5 6 7 7 6 5 5 5 4 4 4
2 1 2 3 4 5 5 4 4 3 3 3 3 2 2 2 3 4 6 7 7 7 6 7 7 8 8 7 8 8 8 7 6 6 6 6 6 5 4 3 3 3 3 3
1 1 2 2 3 4 5 4 3 3 3 2 2 2 2 2 4 8 10 10 8 7 7 6 7 6 6 6 6 7 8 7 6 6 6 6 5 5 5 4 2 2 1 1
1 2 2 3 2 3 4 4 4 4 3 3 2 2 2 3 7 11 12 10 9 8 8 7 6 5 4 4 4 6 7 7 6 5 5 5 5 6 6 6 5 3 1 0
2 2 3 3 3 4 5 6 6 5 4 3 3 2 2 4 8 11 11 10 10 9 8 7 6 5 4 3 3 4 5 6 6 5 4 4 5 6 7 8 7 5 2 0
1 2 3 3 3 4 7 8 7 6 5 4 3 3 2 3 5 9 10 10 10 9 8 7 6 5 4 4 3 3 4 4 4 4 3 3 4 6 7 9 8 5 2 0
1 2 2 3 3 4 5 6 7 7 6 5 3 3 3 3 4 9 12 12 11 9 8 7 6 5 5 4 3 3 2 2 3 3 3 3 3 5 7 8 7 4 1 0
1 1 2 2 2 2 2 4 6 7 7 5 3 4 4 4 6 12 14 12 10 8 7 6 6 5 5 5 4 3 2 1 2 2 2 2 3 5 6 7 5 3 1 1
1 1 1 1 1 1 1 2 3 5 5 4 3 4 5 5 7 10 11 10 8 7 6 6 5 5 5 5 4 3 2 1 1 2 2 2 3 4 5 4 3 1 1 1
1 1 1 1 1 1 1 1 1 3 3 3 3 3 5 5 4 4 5 6 7 7 5 5 5 6 5 5 4 3 2 1 1 1 2 2 3 3 3 2 1 1 1 1
1 1 1 1 1 1 1 1 1 1 1 2 2 3 5 5 3 1 2 4 6 7 5 4 5 5 5 4 3 2 2 1 1 1 2 2 2 2 1 1 0 1 1 1
1 1 1 1 1 1 1 1 0 0 0 1 2 2 3 4 3 2 2 4 6 7 6 5 5 5 4 3 2 2 2 1 1 1 1 1 1 1 1 0 1 1 1 1
1 1 1 0 1 1 1 1 0 0 0 1 2 3 4 4 4 4 4 5 6 6 6 6 5 4 3 2 2 1 1 1 1 1 1 1 1 1 1 1 1 1 1 1
1 0 0 0 0 1 1 0 0 0 1 1 3 5 7 5 4 5 6 6 6 6 6 5 3 2 1 1 1 1 0 0 1 1 1 1 1 1 1 1 1 1 1 1
0 0 0 0 0 0 0 0 0 1 1 1 3 6 6 5 4 5 6 6 6 5 5 3 1 0 1 1 1 0 0 0 1 1 2 2 1 1 1 1 1 1 1 1
0 1 1 0 0 0 0 1 1 1 1 1 3 4 5 5 5 5 4 4 3 3 3 1 0 0 0 0 0 0 0 0 0 1 1 1 1 1 1 1 1 1 0 0
1 1 1 0 0 0 1 1 1 1 1 1 2 4 5 6 6 5 3 2 2 2 2 1 0 0 0 0 0 0 0 0 0 0 0 1 1 1 1 1 1 0 0 0
Wind_Speed
3 2 0 1 2 1 2 6 6 6 6 6 6 6 5 4 4 4 4 5 5 5 5 5 5 5 6 6 6 6 6 7 6 5 5 4 4 4 4 4 4 3 3 2
3 3 2 2 3 3 2 1 3 3 4 5 3 2 1 2 4 4 3 4 5 5 5 5 6 5 5 6 6 6 6 6 5 5 5 5 4 4 3 4 3 3 3 3
2 3 4 2 2 0 0 1 2 3 5 2 1 2 3 3 3 4 3 3 4 5 5 5 6 5 5 5 6 6 6 5 5 5 5 5 5 4 4 4 3 3 3 3
1 3 3 7 2 3 3 2 2 1 1 2 3 3 2 2 3 3 3 3 3 4 4 4 4 5 5 5 5 6 6 5 5 4 4 4 4 4 4 3 3 3 3 3
3 2 4 5 3 1 2 1 2 1 1 1 2 2 2 1 2 3 4 3 3 4 4 3 3 4 5 4 5 5 5 5 5 4 4 4 4 4 4 3 3 3 3 4
3 3 4 5 6 2 4 1 3 1 0 1 2 1 3 2 2 2 2 2 2 2 3 3 3 4 5 4 4 4 4 5 5 5 5 4 4 4 3 3 3 3 3 3
3 3 4 5 5 4 3 4 4 1 1 1 2 4 4 1 0 1 2 2 3 3 3 2 2 4 4 4 4 3 3 3 3 4 4 4 3 3 2 2 2 2 2 2
2 2 5 4 3 2 4 3 1 1 2 2 0 1 1 2 2 2 2 2 3 3 3 2 3 4 4 3 3 2 3 2 2 3 4 4 4 3 2 3 2 2 2 2
5 6 6 2 2 3 3 2 0 1 1 2 1 1 1 1 2 1 1 2 2 3 3 2 2 3 3 1 2 2 2 2 2 2 3 3 4 4 3 3 3 3 3 3
0 2 2 1 1 1 1 2 1 2 2 3 2 1 0 1 1 1 1 2 2 3 3 1 1 2 3 2 2 3 2 0 1 1 2 2 2 3 3 3 3 3 3 3
1 3 2 3 1 1 1 2 2 1 1 2 3 2 1 1 2 1 1 1 2 3 2 1 1 1 2 2 3 2 0 1 1 1 2 2 1 2 3 4 5 5 4 4
4 5 3 4 3 1 2 1 0 1 1 1 2 2 1 1 2 2 2 2 2 2 2 1 1 1 0 1 2 2 1 1 1 1 2 2 1 1 3 3 5 7 6 5
4 4 4 3 2 1 2 1 1 1 2 1 1 1 2 1 1 2 2 2 3 3 2 1 1 1 1 1 2 2 2 2 2 2 2 2 2 2 2 3 3 3 5 6
1 1 1 1 1 1 2 2 3 3 3 2 1 2 2 1 1 1 1 2 2 2 2 1 1 1 2 1 2 2 2 3 3 2 2 2 2 2 2 3 2 3 3 5
0 2 2 1 2 3 3 4 4 3 3 2 2 1 1 1 1 1 1 1 1 1 1 1 1 2 2 1 2 2 2 2 3 3 2 2 2 2 2 3 3 2 1 2
0 2 3 3 2 2 3 3 3 1 1 1 1 1 0 1 1 1 2 2 2 2 2 2 2 3 2 1 1 2 2 4 3 2 2 2 2 3 3 3 3 3 3 3
2 1 2 2 2 2 1 1 2 1 1 1 0 0 0 0 0 1 2 2 3 3 3 3 4 3 2 2 2 2 2 3 4 2 2 3 3 3 3 3 3 3 3 3
4 5 5 5 4 2 1 1 1 1 1 1 1 0 0 1 1 2 3 2 1 2 3 3 3 3 3 2 2 2 2 2 2 2 2 2 2 2 2 2 2 3 2 3
3 3 3 3 3 3 2 1 1 1 1 1 1 0 1 1 2 2 1 1 1 2 4 3 3 2 2 3 3 2 2 2 2 2 2 2 2 2 2 2 2 2 3 2
2 2 3 3 2 2 1 1 0 1 1 1 1 1 2 2 2 1 1 1 3 4 3 3 2 2 2 3 3 2 2 2 2 2 2 2 2 2 2 2 2 2 2 2
2 2 3 3 2 1 1 1 1 1 2 1 1 2 3 3 2 1 1 2 4 3 2 2 2 2 2 2 2 2 2 2 2 2 1 2 2 2 2 2 2 2 1 1
1 1 2 2 3 2 2 2 2 2 2 3 3 2 2 2 2 2 2 3 3 3 1 1 2 2 2 2 1 2 2 2 2 1 1 1 1 1 1 1 1 1 1 1
1 1 1 2 2 2 2 2 2 2 2 3 3 3 3 3 2 1 2 3 2 2 2 2 2 3 2 1 1 1 1 2 2 2 1 1 1 2 2 2 2 1 1 1
1 1 2 2 2 2 2 3 2 2 2 2 3 3 2 1 1 2 2 3 2 2 2 2 3 3 2 1 1 1 2 2 2 1 1 1 1 1 2 2 1 1 1 1
2 1 1 1 0 1 1 1 1 1 1 1 2 2 1 1 1 2 1 1 2 2 2 2 3 3 2 2 1 1 2 2 2 1 1 1 1 1 1 1 2 2 2 1
2 2 2 2 1 1 1 0 0 1 0 1 2 2 1 1 1 0 0 0 1 1 1 1 2 2 2 2 2 2 2 2 2 1 1 1 1 1 1 1 2 1 1 1
1 1 1 0 1 1 1 0 1 1 1 1 2 2 1 1 0 0 0 0 1 1 1 1 1 1 2 2 2 1 1 1 1 1 1 1 1 1 1 2 1 1 2 2
Wind_Direction
211 230 78 319 304 291 203 193 191 221 205 230 227 209 202 181 154 143 143 144 151 164 170 173 176 182 185 189 188 180 181 188 190 189 186 182 185 182 178 180 190 184 177 187
352 332 11 337 326 318 285 222 192 167 228 237 226 168 155 167 146 138 150 160 160 165 167 173 173 184 188 186 183 173 179 191 186 181 182 184 185 181 179 194 199 180 186 182
280 312 24 313 278 268 326 327 160 190 234 242 169 179 189 173 144 145 155 161 170 174 173 179 181 183 191 187 174 171 183 186 180 176 181 187 185 181 190 196 190 188 195 187
144 42 248 243 259 108 100 38 44 98 232 178 175 182 161 137 145 157 162 165 175 178 175 178 181 177 177 175 169 173 179 177 174 168 177 183 183 188 195 188 185 191 198 198
124 170 272 300 319 121 132 320 348 40 8 13 112 80 26 254 180 181 178 176 170 166 169 165 171 168 151 154 154 157 170 176 176 179 183 185 192 202 202 185 190 198 196 194
129 164 225 260 291 283 103 344 320 45 174 181 94 98 256 259 227 185 155 147 130 116 116 133 154 146 135 140 142 163 181 184 182 181 187 193 197 198 192 186 202 204 205 203
158 200 246 266 310 39 97 247 306 352 127 142 191 213 223 191 145 139 114 108 110 104 112 133 139 133 139 148 168 190 182 171 170 176 186 199 200 200 190 190 195 201 211 218
146 179 251 299 25 110 207 237 283 53 57 36 350 90 86 91 81 96 101 102 111 108 101 97 111 122 133 160 179 159 145 145 168 179 187 189 193 204 200 193 197 212 213 230
179 206 234 247 179 211 184 153 98 83 117 116 89 110 118 108 102 109 120 113 113 112 102 82 99 121 130 141 125 122 127 150 187 198 198 186 188 195 199 199 201 211 210 224
53 271 254 270 74 56 95 129 134 129 118 116 133 163 149 152 139 133 114 114 115 111 112 96 72 111 132 131 114 106 117 174 233 223 224 211 204 199 198 204 206 211 215 222
280 277 332 349 7 79 49 65 76 86 132 143 128 139 164 154 144 156 142 108 115 123 130 124 110 116 139 133 114 106 100 269 256 242 233 226 227 229 217 216 205 204 213 206
220 236 197 261 270 151 110 118 158 116 66 94 130 141 142 151 155 156 161 131 121 127 139 141 123 114 221 184 144 140 164 258 251 242 243 227 214 294 312 258 238 223 217 203
205 230 204 236 268 111 116 98 63 103 129 111 80 121 119 136 153 150 157 170 167 162 164 175 167 187 210 206 169 169 197 227 246 252 243 227 215 210 267 314 300 253 227 211
211 99 27 350 324 71 91 86 72 67 73 87 88 83 91 115 132 150 192 215 195 165 171 195 208 245 245 220 189 202 218 238 242 238 242 228 217 216 213 222 247 269 256 234
15 127 170 136 72 68 78 85 78 65 54 44 65 81 91 131 174 216 226 204 146 138 195 194 240 270 273 241 218 222 224 235 238 237 235 225 214 211 218 228 229 236 249 259
135 68 83 90 95 83 83 91 92 89 83 57 51 26 338 171 205 227 225 189 169 216 241 230 245 264 264 233 241 246 244 258 254 235 231 224 218 218 223 229 229 219 219 218
144 156 137 144 155 134 99 130 138 144 126 110 247 230 197 82 356 291 260 223 197 214 228 228 246 258 251 240 231 242 251 260 265 256 235 225 223 224 223 224 227 226 229 218
189 191 179 174 175 172 141 111 154 147 179 195 205 118 183 184 235 263 261 254 220 252 257 243 242 252 261 260 248 243 247 252 254 249 249 245 236 226 217 214 219 220 232 221
190 178 167 162 169 159 156 166 207 200 194 195 176 232 254 241 229 237 272 293 254 258 264 257 243 240 253 267 271 246 245 253 260 255 239 241 239 224 213 213 217 221 219 211
128 134 135 131 124 126 142 172 177 281 260 214 197 294 302 283 251 229 220 239 246 244 247 248 239 240 249 267 281 263 260 259 253 245 233 219 215 220 217 215 212 211 214 212
105 119 126 129 132 175 208 198 198 250 267 237 206 233 261 268 251 214 191 267 277 268 247 241 250 262 257 266 279 266 264 260 254 250 234 227 228 229 230 229 217 202 200 206
96 110 139 147 152 195 245 230 213 229 249 257 251 247 252 264 267 270 248 239 255 259 247 251 254 263 279 278 268 264 268 260 254 246 232 224 216 216 230 234 218 206 192 187
156 169 191 195 197 214 247 246 225 224 233 241 244 239 230 238 227 212 271 274 259 248 248 244 247 255 271 280 271 259 264 259 254 249 239 229 217 204 206 215 205 183 185 194
194 210 219 227 206 181 217 261 274 264 246 249 248 240 228 234 276 259 242 243 239 235 254 257 251 252 251 259 266 263 262 259 258 251 240 233 234 225 209 196 189 173 173 176
183 191 188 172 214 239 229 247 306 319 333 309 294 281 257 205 219 263 264 243 232 233 261 253 246 251 251 256 254 249 249 252 248 233 233 240 236 214 184 169 166 164 164 160
178 184 187 190 213 248 259 227 247 270 272 294 295 289 287 277 233 228 247 259 266 275 267 257 255 253 256 254 250 246 242 243 238 216 198 187 184 173 160 155 162 161 153 147
178 167 128 69 285 251 231 193 219 252 228 218 264 274 270 263 280 8 54 5 314 308 307 295 279 260 256 255 252 246 226 209 204 194 185 178 164 155 150 153 160 157 156 151